Location: *
(44.1392°N, 4.8079°E)
Time: 20:56:31
(UTC+00:00)

Cosmos 1782 - Pass Details

Date: 21 June 2021
Orbit: 537 x 550 km, 82.5° (Epoch: 01 August)

Event Time Altitude Azimuth Distance (km) Brightness Sun altitude
Rises 02:04:24 0° 352° (N) 2,720 7.2 -15.0°
Reaches altitude 10° 02:06:34 10° 353° (N) 1,824 6.2 -14.8°
Maximum altitude 02:10:36 83° 81° (E) 558 2.8 -14.4°
Enters shadow 02:14:02 14° 170° (S) 1,586 4.8 -14.1°
